Погода в Дьеппе

Франция     49°55′35″N   1°05′08″E
темп.,
°C
ветер,
м/с
пор.,
м/с
влажн.,
%
обл.,
%
осадки,
мм/ч
давл.,
гПа
погр.,
м
25 января, пн
пн2501:00+5сз9107784 4.1 997821
04:00+5ссз11127736 0.6 10001208
07:00+5с13157167 1.4 10031452
10:00+5с10117259 0.3 1007943
13:00+5ссз776229 0.3 1010921
16:00+5сз67650 0.0 10121106
19:00+6зсз9107314 0.1 10141075
22:00+6сз896512 0.3 10161121
26 января, вт
вт2601:00+6зсз910647 0.3 10181097
04:00+6зсз810686 0.1 10191357
07:00+7зсз8106738 0.4 10211369
10:00+7зсз576799 0.4 10211141
13:00+6зюз81078100 0.7 1022872
16:00+6юз7867100 0.0 1021699
19:00+5ююз81070100 0.0 1021508
22:00+3ююз91186100 0.4 1020469
27 января, ср
ср2701:00+3ююз111489100 0.9 1019528
04:00+4ююз91283100 0.4 1017479
07:00+5ююз9118887 0.4 1016358
10:00+6юз6893100 0.1 1016286
13:00+9зюз7996100 0.2 1016204
16:00+9зюз6997100 0.1 1015171
19:00+9юз5795100 0.1 1015120
22:00+9ююз6995100 1.3 1012162
28 января, чт
чт2801:00+9ююз81296100 6.1 1010213
04:00+10зюз101793100 0.5 1007388
07:00+10зюз122093100 2.0 1006477
10:00+10зюз13209081 0.0 1006589
13:00+10зюз14218658 0.1 1007750
16:00+10зюз14228611 0.0 1006771
19:00+10зюз12199155 0.0 1006535
22:00+10зюз91590100 0.1 1005263
29 января, пт
пт2901:00+10з152290100 1.4 1005656
04:00+9з12188599 0.0 1007688
07:00+9зюз10159098 0.0 1008513
10:00+9зюз81492100 0.0 1009425
13:00+9зюз91388100 0.1 1008387
16:00+10юз61083100 0.1 1005207
19:00+9ююз5785100 0.2 1002108
22:00+8ю4691100 1.1 1000184